Regional Weather Roundup
Issued by NWS

Home | Current Version | Previous Version | Text Only | Print | Product List | Glossary Off
Versions: 1 2 3 4 5 6 7 8 9 10 11 12 13 14 15 16 17 18 19 20 21 22 23 24 25 26 27 28 29 30 31 32 33 34 35 36 37 38 39 40 41 42 43 44 45 46 47 48 49 50

571
ASUS45 KBOU 270410
RWRCO

WEATHER ROUNDUP FOR COLORADO
NATIONAL WEATHER SERVICE DENVER/BOULDER CO
1000 PM MDT MON SEP 26 2016

NOTE: "FAIR" INDICATES FEW OR NO CLOUDS BELOW 12000 FEET WITH NO
SIGNIFICANT WEATHER AND/OR OBSTRUCTIONS TO VISIBILITY.

COZ001>005-013-030-031-270500-
...NORTHWEST COLORADO...

CITY           SKY/WX    TMP DP  RH WIND       PRES   REMARKS
CRAIG          FAIR      48  38  68 CALM      30.37S
HAYDEN         FAIR      48  30  49 CALM      30.38F
MEEKER         FAIR      47  39  74 N3        30.38R
MOUNT WERNER   NOT AVBL
STEAMBOAT SPGS FAIR      50  34  53 CALM      30.40S
WALDEN           N/A     46  32  57 W3        30.48S
$$

COZ006>008-011-270500-
...WEST CENTRAL VALLEYS...

CITY           SKY/WX    TMP DP  RH WIND       PRES   REMARKS
GRAND JUNCTION FAIR      59  40  49 SE3       30.25R
MONTROSE       FAIR      55  38  52 SE9       30.34S
EAGLE          FAIR      54  32  43 E3        30.39R
RIFLE          FAIR      56  41  57 E5        30.31R
DELTA          NOT AVBL
NUCLA          FAIR      55  34  44 E9        30.36R
$$

COZ017>023-064>068-270500-
...SOUTHWEST COLORADO...

CITY           SKY/WX    TMP DP  RH WIND       PRES   REMARKS
DURANGO        FAIR      51  37  58 N7        30.36R
CORTEZ         FAIR      50  40  68 NE7       30.32R
PAGOSA SPRINGS FAIR      49  36  60 CALM      30.43S
TELLURIDE      FAIR      49  36  59 SE7       30.53S
WOLF CREEK PAS FAIR      41  28  60 MISG      30.69F
$$

COZ009-010-012-014-032>034-037-058>063-270500-
...CENTRAL COLORADO...

CITY           SKY/WX    TMP DP  RH WIND       PRES   REMARKS
ASPEN          FAIR      47  34  60 SW9       30.43S
BUENA VISTA    FAIR      52  24  33 E6        30.47S
COPPER MTN     FAIR      46  23  39 SE3       30.69S
BERTHOUD PASS  FAIR      36  23  60 N9G18     30.71F
COTTONWOOD PAS FAIR      52  19  28 CALM      30.58S
GUNNISON       FAIR      48  34  58 CALM      30.43R
KREMMLING      FAIR      50  27  40 CALM      30.44R
LEADVILLE      FAIR      44  22  41 CALM      30.56R
MONARCH PASS   FAIR      37  23  56 NE15      30.78S
SALIDA         FAIR      58  25  27 CALM      30.52R
SUNLIGHT       FAIR      48  30  49 N3        30.64S
WILKERSON PASS FAIR      41  25  52 SE12      30.68F
$$

COZ069>075-270500-
...SAN LUIS VALLEY/SANGRE DE CRISTO MOUNTAINS...

CITY           SKY/WX    TMP DP  RH WIND       PRES   REMARKS
ALAMOSA        FAIR      52  32  46 SE10      30.40R
LA VETA PASS   FAIR      45  30  57 MISG      30.58S
SAGUACHE       NOT AVBL
$$

COZ035-036-038>040-270500-
...NORTHERN COLORADO FRONT RANGE...

CITY           SKY/WX    TMP DP  RH WIND       PRES   REMARKS
DENVER INTL AP FAIR      55  28  35 S12       30.32S
DMNS CITY PARK   N/A     54  42  64 S2        30.33S
AURORA         PTCLDY    56  30  37 S6        30.34S
FRONT RANGE AP NOT AVBL
ERIE MUNI ARPT FAIR      51  32  48 CALM      30.32S
BOULDER MUN AP FAIR      57  32  38 CALM      30.32S
CENTENNIAL     FAIR      60  31  33 S12       30.35S
BROOMFIELD     NOT AVBL
FORT COLLINS   FAIR      57  37  47 N6        30.33R
LONGMONT       FAIR      55  35  47 W5        30.33S
$$

COZ041-046-047-076>085-087-088-270500-
...PIKES PEAK/PALMER DIVIDE AND SOUTHERN FOOTHILLS...

CITY           SKY/WX    TMP DP  RH WIND       PRES   REMARKS
COLO. SPRINGS  FAIR      54  29  38 NE3       30.38S
A. F. ACADEMY  FAIR      47  28  48 N10       30.39S
SCHRIEVER AFB  NOT AVBL
ELLICOTT       NOT AVBL
FALCON         FAIR      51  29  41 CALM      30.42S
FORT CARSON    FAIR      60  28  29 SW7       30.35S
LIMON          FAIR      45  29  53 NW3       30.34R
MONUMENT HILL  FAIR      46  28  49 SE5       30.44S
TRINIDAD       FAIR      54  34  46 NW8       30.33S
$$

COZ042>045-048>051-090-091-270500-
...NORTHEAST COLORADO...

CITY           SKY/WX    TMP DP  RH WIND       PRES   REMARKS
GREELEY ARPT   FAIR      57  39  51 E7        30.31F
AKRON          FAIR      56  36  47 SE3       30.30S
BURLINGTON     FAIR      60  36  40 NE3       30.28R
WRAY           NOT AVBL
STERLING       FAIR      52  37  58 CALM      30.26S
HOLYOKE        FAIR      54  43  66 W6        30.25S
FORT MORGAN    FAIR      54  36  50 NE6       30.31S
$$

COZ086-089-092>099-270500-
...SOUTHEAST COLORADO...

CITY           SKY/WX    TMP DP  RH WIND       PRES   REMARKS
PUEBLO         FAIR      55  28  35 CALM      30.29R
LA JUNTA       FAIR      65  32  29 SE5       30.26S
LAMAR          FAIR      53  32  44 SW8       30.22S
SPRINGFIELD    NOT AVBL
$$




USA.gov is the U.S. government's official web portal to all federal, state and local government web resources and services.